Powrót do katalogu

AC1-003

AktywnyŁącznośćSSO
NORAD 66689·PAYLOAD·🇬🇧 United Kingdom

Wystrzelony Nov 28, 2025 z Vandenberg Space Force Base

Loading…

Następne Przeloty (najbliższe 24 godziny)

TLE

ŚwieżeSource: Space-Track

Epoka: Sep 14, 2026, 03:42 UTC

1 66689U 25276Z   26257.15430979  .00001624  00000-0  81887-4 0  9996
2 66689  97.4131 328.7427 0004274  73.1879 286.9824 15.18547379 43902

Śledź AC1-003 w czasie rzeczywistym z AllMySat

Download on the App Store